Regional Weather Roundup
Issued by NWS

Home | Current Version | Previous Version | Text Only | Print | Product List | Glossary On
Versions: 1 2 3 4 5 6 7 8 9 10 11 12 13 14 15 16 17 18 19 20 21 22 23 24 25 26 27 28 29 30 31 32 33 34 35 36 37 38 39 40 41 42 43 44 45 46 47 48 49 50
000
ASUS43 KMKX 020600
RWRWI

WISCONSIN REGIONAL WEATHER ROUNDUP
NATIONAL WEATHER SERVICE MILWAUKEE/SULLIVAN WI
100 AM CDT SAT AUG 02 2014

NOTE: "FAIR" INDICATES FEW OR NO CLOUDS BELOW 12,000 FEET WITH NO
SIGNIFICANT WEATHER AND/OR OBSTRUCTIONS TO VISIBILITY.

WIZ001-002-006>008-014>016-023>028-020700-
NORTHWEST WISCONSIN

CITY           SKY/WX    TMP DP  RH WIND       PRES   REMARKS
SUPERIOR ARPT  CLEAR     55  52  90 NE3       30.10S
ASHLAND        MOCLDY    57  55  93 CALM      30.11S
6HR MIN TEMP:  56; 6HR MAX TEMP:  70;

HAYWARD        CLEAR     59  57  93 CALM      30.11S
6HR MIN TEMP:  58; 6HR MAX TEMP:  76;

SIREN          CLEAR     60  58  92 CALM      30.09S
RICE LAKE      CLEAR     61  60  95 CALM      30.12S FOG
LADYSMITH      CLEAR     61  57  88 E3        30.14R
EAU CLAIRE     NOT AVBL
MENOMONIE      CLEAR     64  61  88 CALM      30.10R
NEW RICHMOND   CLEAR     64  61  92 E5        30.10R
OSCEOLA        CLEAR     65  62  89 CALM      30.12R
$$

WIZ003>005-009-010-017-018-020700-
NORTH CENTRAL WISCONSIN

CITY           SKY/WX    TMP DP  RH WIND       PRES   REMARKS
WOODRUFF       CLEAR     52  42  69 CALM      30.14S
RHINELANDER    CLEAR     54  52  93 CALM      30.14S
6HR MIN TEMP:  53; 6HR MAX TEMP:  73;

EAGLE RIVER    PTCLDY    52  52 100 CALM      30.14S FOG
LAND O LAKES   CLEAR     49  49  99 CALM      30.15F FOG
PHILLIPS       CLEAR     55  54  97 CALM      30.13S
TOMAHAWK       CLEAR     51  49  95 CALM      30.14S
MEDFORD          N/A     55  55  99 CALM      30.13S FOG
MERRILL          N/A     54  54 100 CALM      30.12S FOG
$$

WIZ029-030-035-036-043>047-020700-
CENTRAL WISCONSIN

CITY           SKY/WX    TMP DP  RH WIND       PRES   REMARKS
WAUSAU         CLEAR     59  58  96 CALM      30.10F FOG
6HR MIN TEMP:  59; 6HR MAX TEMP:  71; 6HR PCP: TRACE;

MOSINEE        CLEAR     59  57  94 CALM      30.12F FOG
MARSHFIELD     FOG       59  57  93 CALM      30.12R VSB 1/2
6HR MIN TEMP:  58; 6HR MAX TEMP:  65; 6HR PCP: TRACE;

STEVENS POINT  CLEAR     53  52  97 CALM      30.12F
WAUPACA        CLEAR     58  55  89 CALM      30.12S
WAUTOMA        NOT AVBL
WISC RAPIDS    CLEAR     57  56  96 CALM      30.13S
6HR MIN TEMP:  56; 6HR MAX TEMP:  66; 6HR PCP: TRACE;

CAMP DOUGLAS   CLEAR     55  55 100 E2        30.11S FOG
$$

WIZ011>013-019>022-031-037>040-048>050-020700-
NORTHEAST WISCONSIN

CITY           SKY/WX    TMP DP  RH WIND       PRES   REMARKS
ANTIGO         PTCLDY    54  54  99 CALM      30.13S FOG
STURGEON BAY   PTCLDY    61  57  88 E3        30.10R
6HR MIN TEMP:  61; 6HR MAX TEMP:  70;

GREEN BAY      CLEAR     61  58  90 SW5       30.10R
6HR MIN TEMP:  61; 6HR MAX TEMP:  74;

MANITOWOC      NOT AVBL
APPLETON       CLEAR     59  55  88 NW8       30.12S
CLINTONVILLE   CLEAR     57  55  94 CALM      30.10F
OSHKOSH        CLEAR     61  59  93 W6        30.11S
6HR MIN TEMP:  60; 6HR MAX TEMP:  72;

$$

WIZ032>034-041-042-053>061-020700-
SOUTHWEST WISCONSIN

CITY           SKY/WX    TMP DP  RH WIND       PRES   REMARKS
LA CROSSE      CLEAR     66  58  75 SE5       30.10R
6HR MIN TEMP:  66; 6HR MAX TEMP:  82;

SPARTA         CLEAR     58  56  94 CALM      30.12S
VIROQUA        FAIR      61  54  77 CALM      30.13S
BOSCOBEL       CLEAR     58  54  86 CALM      30.12R
6HR MIN TEMP:  58; 6HR MAX TEMP:  83;

PRAIRIE DU CHI CLEAR     65  53  63 CALM      30.11S
PLATTEVILLE    FAIR      62  57  85 S6        30.12S
$$

WIZ056-057-062-063-064-067-068-020700-
SOUTH CENTRAL WISCONSIN

CITY           SKY/WX    TMP DP  RH WIND       PRES   REMARKS
BARABOO/DELLS  CLEAR     58  55  89 CALM      30.13S
LONE ROCK      NOT AVBL
WATERTOWN      CLEAR     58  58  97 NW5       30.11S
MADISON        CLEAR     62  57  83 CALM      30.11F
6HR MIN TEMP:  60; 6HR MAX TEMP:  66; 6HR PCP: TRACE;

MIDDLETON      FAIR      62  56  82 CALM      30.13S
MONROE         CLEAR     61  55  82 SW7       30.11S
JANESVILLE     PTCLDY    61  54  77 NW3       30.10S
$$

WIZ051-052-058>065-066-070>072-020700-
SOUTHEAST WISCONSIN

CITY           SKY/WX    TMP DP  RH WIND       PRES   REMARKS
MILWAUKEE      PTCLDY    60  55  83 SE7       30.09R
6HR MIN TEMP:  60; 6HR MAX TEMP:  67; 6HR PCP:  0.58;

WAUKESHA       CLEAR     55  54  94 W6        30.12R
MILWAUKEE/TIMM CLEAR     59  54  82 CALM      30.10S
RACINE         CLEAR     58  55  90 VRB3      30.11R
6HR MIN TEMP:  58; 6HR MAX TEMP:  72; 6HR PCP:  0.14;

BURLINGTON     CLEAR     55  55  99 CALM      30.10R
KENOSHA        CLEAR     58  57  97 NW3       30.09R
6HR MIN TEMP:  56; 6HR MAX TEMP:  75; 6HR PCP:  0.39;

FOND DU LAC    CLEAR     57  54  89 S6        30.11S
6HR MIN TEMP:  56; 6HR MAX TEMP:  72;

SHEBOYGAN      CLEAR     61  56  83 NW7       30.10S
6HR MIN TEMP:  58; 6HR MAX TEMP:  70;

WEST BEND      CLEAR     57  52  82 NW5       30.11S
JUNEAU         CLEAR     57  53  86 SW5       30.13S
$$

LSZ147-162-020700-
LAKE SUPERIOR

STATION/POSITION TIME  TEMP    WIND        PRES    WAVE
                       AIR SEA DIR/SP/G            HT/PER
                 (UTC) (F)     (DEG/KT/KT) (MB)    (FT/S)
W MID LAKE BUOY  0450   49 47   30/  4/  4 1019.7R   0
PORT WING        0500   58      CALM  /  3 1019.3
SAXON HARBOR     0500             CALM     1019.3
$$

LMZ867-665-643>646-020700-
LAKE MICHIGAN

STATION/POSITION TIME  TEMP    WIND        PRES    WAVE
                       AIR SEA DIR/SP/G            HT/PER
                 (UTC) (F)     (DEG/KT/KT) (MB)    (FT/S)
N MID LAKE BUOY  0450   61 60   30/  4/  4 1019.0R   0
NORTHPORT PIER   0500   63     110/  3/  3 1019.3R
SISTER BAY       0411   62     100/  6/  9   N/A
ALGOMA LAKESHORE 0506             CALM       N/A
KEWAUNEE LAKESHO 0500   56      50/  3/  4 1018.1R
SHEBOYGAN LAKESH 0500   67     210/  7/  8 1019.1R
PORT WASHINGTON  0500   66     280/  4/  5 1019.6R
ATWATER BUOY     0500   65     280/ 10     1019.5F
MILWAUKEE LAKESH 0500   68     300/  8/ 13   N/A
S MID LAKE BUOY  0450   66 64  310/  4/  8 1019.2R   0
KENOSHA   LAKESH 0500   65      80/  7/  8 1018.3F
$$

TC  - TEMPERATURE IN CELSIUS
VSB - VISIBILITY IN STATUTE MILES
WCI - WIND CHILL INDEX
HX  - HEAT INDEX




USA.gov is the U.S. government's official web portal to all federal, state and local government web resources and services.